Regional Weather Roundup
Issued by NWS

Home | Current Version | Previous Version | Graphics & Text | Print | Product List | Glossary Off
Versions: 1 2 3 4 5 6 7 8 9 10 11 12 13 14 15 16 17 18 19 20 21 22 23 24 25 26 27 28 29 30 31 32 33 34 35 36 37 38 39 40 41 42 43 44 45 46 47 48 49 50

000
ASUS45 KBOU 180807
RWRCO

WEATHER ROUNDUP FOR COLORADO
NATIONAL WEATHER SERVICE DENVER/BOULDER CO
200 AM MDT THU SEP 18 2014

NOTE: "FAIR" INDICATES FEW OR NO CLOUDS BELOW 12000 FEET WITH NO
SIGNIFICANT WEATHER AND/OR OBSTRUCTIONS TO VISIBILITY.

COZ001>005-013-030-031-180900-
...NORTHWEST COLORADO...

CITY           SKY/WX    TMP DP  RH WIND       PRES   REMARKS
CRAIG          CLEAR     45  38  76 CALM      30.13S
HAYDEN         CLEAR     54  37  54 E12       30.15S
MEEKER         CLEAR     48  39  71 NE6       30.14F
MOUNT WERNER   NOT AVBL
STEAMBOAT SPGS CLEAR     47  39  75 E3        30.18S
WALDEN         CLEAR     37  32  81 E6        30.27F
$$

COZ006>008-011-180900-
...WEST CENTRAL VALLEYS...

CITY           SKY/WX    TMP DP  RH WIND       PRES   REMARKS
GRAND JUNCTION CLEAR     65  40  39 E10       30.02S
MONTROSE       CLEAR     60  43  53 SE6       30.11S
EAGLE          CLEAR     50  37  62 CALM      30.21S
RIFLE          CLEAR     54  41  61 E6        30.08S
DELTA          CLEAR     63  42  47 E5        30.07S
NUCLA          CLEAR     55  43  62 E5        30.16F
$$

COZ017>023-064>068-180900-
...SOUTHWEST COLORADO...

CITY           SKY/WX    TMP DP  RH WIND       PRES   REMARKS
DURANGO        CLEAR     49  46  90 CALM      30.19S
CORTEZ         CLEAR     48  46  93 CALM      30.14S
PAGOSA SPRINGS CLEAR     46  43  90 CALM      30.26S
TELLURIDE      NOT AVBL
WOLF CREEK PAS CLEAR     43  32  65 CALM      30.52F
$$

COZ009-010-012-014-032>034-037-058>063-180900-
...CENTRAL COLORADO...

CITY           SKY/WX    TMP DP  RH WIND       PRES   REMARKS
ASPEN          CLEAR     50  35  56 SW7       30.24F
BUENA VISTA    CLEAR     51  36  56 NW8       30.29S
COPPER MTN     CLEAR     54  30  40 S16       30.55F
BERTHOUD PASS  FAIR      43  41  93 W6        30.60S
COTTONWOOD PAS CLEAR     59  32  36 CALM      30.41S
GUNNISON       CLEAR     48  36  61 CALM      30.29R
KREMMLING      CLEAR     41  34  75 CALM      30.27S
LEADVILLE      PTCLDY    36  30  79 CALM      30.40S
MONARCH PASS   CLEAR     46  32  57 E12       30.64S
SALIDA         CLEAR     54  38  55 W6        30.34R
SUNLIGHT       CLEAR     52  32  46 NE5       30.46F
WILKERSON PASS NOT AVBL
$$

COZ069>075-180900-
...SAN LUIS VALLEY/SANGRE DE CRISTO MOUNTAINS...

CITY           SKY/WX    TMP DP  RH WIND       PRES   REMARKS
ALAMOSA        PTCLDY    47  43  86 CALM      30.24S
LA VETA PASS   NOT AVBL
SAGUACHE       CLEAR     48  34  57 N6        30.29R
$$

COZ035-036-038>040-180900-
...NORTHERN COLORADO FRONT RANGE...

CITY           SKY/WX    TMP DP  RH WIND       PRES   REMARKS
DENVER INTL AP PTCLDY    63  43  48 SW12      30.07F
DMNS CITY PARK   N/A     62  44  51 S5G10     30.06F
AURORA         PTCLDY    59  44  58 S12       30.10S
FRONT RANGE AP CLEAR     59  45  58 S9        30.08F
ERIE MUNI ARPT CLEAR     52  46  79 CALM      30.04F
BOULDER MUN AP CLEAR     68  36  30 SW5       30.05S
CENTENNIAL     PTCLDY    58  45  62 S8        30.11S
BROOMFIELD     CLEAR     63  39  42 SW3       30.08F
FORT COLLINS   CLEAR     55  45  67 N6        30.06S
LONGMONT       CLEAR     53  45  73 CALM      30.06S
$$

COZ041-046-047-076>085-087-088-180900-
...PIKES PEAK/PALMER DIVIDE AND SOUTHERN FOOTHILLS...

CITY           SKY/WX    TMP DP  RH WIND       PRES   REMARKS
COLO. SPRINGS  CLEAR     58  39  49 N9        30.13F
A. F. ACADEMY  CLEAR     51  40  66 N9        30.15F
ELLICOTT       NOT AVBL
FALCON         CLEAR     57  39  50 N6        30.18S
FORT CARSON    CLEAR     60  41  50 N13       30.09F
LIMON          CLEAR     56  42  59 NW6       30.07S
MONUMENT HILL  CLEAR     52  37  58 SW6       30.18S
TRINIDAD       CLEAR     60  43  53 W18       30.09F
$$

COZ042>045-048>051-090-091-180900-
...NORTHEAST COLORADO...

CITY           SKY/WX    TMP DP  RH WIND       PRES   REMARKS
GREELEY ARPT   CLEAR     52  41  66 W5        30.04S
AKRON          CLEAR     60  45  57 S10       30.04R
BURLINGTON     CLEAR     59  55  87 CALM      29.99F
WRAY           CLEAR    N/A N/A N/A E6        29.99R
STERLING       CLEAR     54  50  87 CALM      29.98S
HOLYOKE        CLOUDY    66  63  88 SE12      29.99S FOG
FORT MORGAN    CLEAR     54  45  71 W6        30.02S
$$

COZ086-089-092>099-180900-
...SOUTHEAST COLORADO...

CITY           SKY/WX    TMP DP  RH WIND       PRES   REMARKS
PUEBLO         CLEAR     57  38  48 NW9       30.02S
LA JUNTA       CLEAR     58  43  57 NW3       29.98S
LAMAR          CLEAR     55  52  89 SW3       29.95S
SPRINGFIELD      N/A     56  53  90 SW9       30.00S
$$


USA.gov is the U.S. government's official web portal to all federal, state and local government web resources and services.